| time (UTC) | temp F | wind direction | speed knots | gust knots | rain 1hr in | rain 24hr in | rain mn in | humidity % | barometer mb |
| 20260904220037 | 71 | 0.0 | 1.7 | 0.00 | 0.02 | 0.00 | 55 | 1013.4 | |
| 20260904215038 | 71 | 45 | 1.7 | 3.5 | 0.00 | 0.02 | 0.00 | 52 | 1013.3 |
| 20260904214015 | 71 | 158 | 0.9 | 3.5 | 0.00 | 0.02 | 0.00 | 54 | 1013.2 |
| 20260904213015 | 71 | 68 | 0.9 | 4.3 | 0.00 | 0.02 | 0.00 | 57 | 1013.4 |
| 20260904212036 | 70 | 158 | 1.7 | 5.2 | 0.00 | 0.02 | 0.00 | 58 | 1013.3 |
| 20260904211016 | 70 | 0.0 | 1.7 | 0.00 | 0.02 | 0.00 | 60 | 1013.3 | |
| 20260904210037 | 69 | 0.0 | 0.9 | 0.00 | 0.02 | 0.00 | 60 | 1013.3 | |
| 20260904205015 | 69 | 0.0 | 2.6 | 0.00 | 0.02 | 0.00 | 61 | 1013.3 | |
| 20260904204037 | 68 | 0.0 | 2.6 | 0.00 | 0.02 | 0.00 | 62 | 1013.4 | |
| 20260904203016 | 67 | 0.0 | 1.7 | 0.00 | 0.02 | 0.00 | 64 | 1013.4 | |
| 20260904202015 | 66 | 0.0 | 0.9 | 0.00 | 0.02 | 0.00 | 69 | 1013.3 | |
| 20260904201016 | 65 | 0.0 | 0.9 | 0.00 | 0.02 | 0.00 | 69 | 1013.4 | |
| 20260904200038 | 64 | 0.0 | 0.0 | 0.00 | 0.02 | 0.00 | 71 | 1013.5 | |
| 20260904195018 | 64 | 0.0 | 0.9 | 0.00 | 0.02 | 0.00 | 70 | 1013.5 | |
| 20260904194018 | 65 | 158 | 0.9 | 2.6 | 0.00 | 0.02 | 0.00 | 71 | 1013.7 |
| 20260904193038 | 64 | 0.0 | 0.9 | 0.00 | 0.02 | 0.00 | 72 | 1013.7 | |
| 20260904192018 | 64 | 0.0 | 1.7 | 0.00 | 0.02 | 0.00 | 71 | 1013.7 | |
| 20260904191018 | 64 | 0.0 | 1.7 | 0.00 | 0.02 | 0.00 | 73 | 1013.7 | |
| 20260904190017 | 63 | 0.0 | 2.6 | 0.00 | 0.02 | 0.00 | 76 | 1013.7 | |
| 20260904185019 | 62 | 0.0 | 1.7 | 0.00 | 0.02 | 0.00 | 77 | 1013.8 | |
| 20260904184038 | 62 | 0.0 | 0.0 | 0.00 | 0.02 | 0.00 | 79 | 1013.8 | |
| 20260904183017 | 62 | 0.0 | 0.9 | 0.00 | 0.02 | 0.00 | 79 | 1013.8 | |
| 20260904182018 | 62 | 0.0 | 0.9 | 0.00 | 0.02 | 0.00 | 77 | 1013.7 | |
| 20260904181019 | 62 | 0.0 | 1.7 | 0.00 | 0.02 | 0.00 | 77 | 1013.7 | |
| 20260904180019 | 61 | 0.0 | 2.6 | 0.00 | 0.02 | 0.00 | 81 | 1013.6 | |
| 20260904175019 | 60 | 0.0 | 1.7 | 0.00 | 0.02 | 0.00 | 83 | 1013.7 | |
| 20260904174019 | 59 | 0.0 | 2.6 | 0.00 | 0.02 | 0.00 | 85 | 1013.8 | |
| 20260904173018 | 59 | 0.0 | 0.9 | 0.00 | 0.02 | 0.00 | 85 | 1013.7 | |
| 20260904172017 | 59 | 0.0 | 0.0 | 0.00 | 0.02 | 0.00 | 87 | 1013.7 | |
| 20260904171017 | 58 | 0.0 | 0.9 | 0.00 | 0.02 | 0.00 | 87 | 1013.8 | |
| 20260904170017 | 58 | 0.0 | 0.9 | 0.00 | 0.02 | 0.00 | 88 | 1013.8 | |
| 20260904165017 | 57 | 0.0 | 0.0 | 0.00 | 0.02 | 0.00 | 90 | 1013.8 | |
| 20260904164037 | 57 | 0.0 | 0.0 | 0.00 | 0.02 | 0.00 | 91 | 1013.8 | |
| 20260904163038 | 56 | 0.0 | 0.9 | 0.00 | 0.02 | 0.00 | 93 | 1013.9 | |
| 20260904162018 | 55 | 0.0 | 0.9 | 0.00 | 0.02 | 0.00 | 93 | 1013.9 | |
| 20260904161017 | 55 | 0.0 | 0.0 | 0.00 | 0.02 | 0.00 | 95 | 1013.8 | |
| 20260904160017 | 54 | 0.0 | 0.0 | 0.00 | 0.02 | 0.00 | 96 | 1013.7 | |
| 20260904155017 | 54 | 0.0 | 0.0 | 0.00 | 0.02 | 0.00 | 96 | 1013.8 | |
| 20260904154017 | 53 | 0.0 | 0.0 | 0.00 | 0.02 | 0.00 | 96 | 1013.8 | |
| 20260904153017 | 53 | 0.0 | 0.0 | 0.00 | 0.02 | 0.00 | 96 | 1013.6 | |
| 20260904152017 | 53 | 0.0 | 0.0 | 0.00 | 0.02 | 0.00 | 97 | 1013.4 | |
| 20260904151017 | 53 | 0.0 | 0.0 | 0.00 | 0.02 | 0.00 | 97 | 1013.4 | |
| 20260904150017 | 52 | 0.0 | 0.0 | 0.00 | 0.02 | 0.00 | 97 | 1013.2 | |
| 20260904145017 | 52 | 0.0 | 0.0 | 0.00 | 0.02 | 0.00 | 97 | 1013.2 | |
| 20260904144018 | 52 | 0.0 | 0.0 | 0.00 | 0.02 | 0.00 | 97 | 1013.1 | |
| 20260904143018 | 51 | 0.0 | 0.0 | 0.00 | 0.02 | 0.00 | 97 | 1012.9 | |
| 20260904142017 | 51 | 0.0 | 0.0 | 0.00 | 0.02 | 0.00 | 97 | 1012.8 | |
| 20260904141017 | 51 | 0.0 | 0.0 | 0.00 | 0.02 | 0.00 | 97 | 1012.8 | |
| 20260904140017 | 51 | 0.0 | 0.0 | 0.00 | 0.02 | 0.00 | 97 | 1012.7 | |
| 20260904135017 | 51 | 0.0 | 0.0 | 0.00 | 0.02 | 0.00 | 97 | 1012.7 | |
| 20260904134017 | 51 | 0.0 | 0.0 | 0.00 | 0.02 | 0.00 | 97 | 1012.7 | |
| 20260904133017 | 51 | 0.0 | 0.0 | 0.00 | 0.02 | 0.00 | 97 | 1012.6 | |
| 20260904132017 | 51 | 0.0 | 0.0 | 0.00 | 0.02 | 0.00 | 97 | 1012.5 | |
| 20260904131017 | 51 | 0.0 | 0.0 | 0.00 | 0.02 | 0.00 | 97 | 1012.4 | |
| 20260904130017 | 51 | 0.0 | 0.0 | 0.00 | 0.02 | 0.00 | 97 | 1012.2 | |
| 20260904125016 | 51 | 0.0 | 0.0 | 0.00 | 0.02 | 0.00 | 97 | 1012.1 | |
| 20260904124017 | 51 | 0.0 | 0.0 | 0.00 | 0.02 | 0.00 | 96 | 1012.1 | |
| 20260904123017 | 51 | 0.0 | 0.0 | 0.00 | 0.02 | 0.00 | 96 | 1012.1 | |
| 20260904122017 | 51 | 0.0 | 0.0 | 0.00 | 0.02 | 0.00 | 96 | 1011.9 | |
| 20260904121017 | 51 | 0.0 | 0.0 | 0.00 | 0.02 | 0.00 | 96 | 1012.0 | |
| 20260904120018 | 51 | 0.0 | 0.0 | 0.00 | 0.02 | 0.00 | 96 | 1011.9 | |
| 20260904115022 | 51 | 0.0 | 0.0 | 0.00 | 0.02 | 0.00 | 96 | 1011.8 | |
| 20260904114017 | 51 | 0.0 | 0.0 | 0.00 | 0.02 | 0.00 | 96 | 1011.6 | |
| 20260904113037 | 51 | 0.0 | 0.0 | 0.00 | 0.02 | 0.00 | 96 | 1011.6 | |
| 20260904112017 | 51 | 0.0 | 0.0 | 0.00 | 0.02 | 0.00 | 96 | 1011.6 | |
| 20260904111018 | 52 | 0.0 | 0.0 | 0.00 | 0.02 | 0.00 | 96 | 1011.4 | |
| 20260904110017 | 52 | 0.0 | 0.0 | 0.00 | 0.02 | 0.00 | 96 | 1011.4 | |
| 20260904105017 | 52 | 0.0 | 0.0 | 0.00 | 0.02 | 0.00 | 96 | 1011.4 | |
| 20260904104016 | 52 | 0.0 | 0.0 | 0.00 | 0.02 | 0.00 | 96 | 1011.5 | |
| 20260904103017 | 52 | 0.0 | 0.0 | 0.00 | 0.02 | 0.00 | 96 | 1011.5 | |
| 20260904102017 | 52 | 0.0 | 0.0 | 0.00 | 0.02 | 0.00 | 96 | 1011.4 | |
| 20260904101017 | 52 | 0.0 | 0.0 | 0.00 | 0.02 | 0.00 | 96 | 1011.3 | |
| 20260904100037 | 52 | 0.0 | 0.0 | 0.00 | 0.02 | 0.00 | 96 | 1011.2 | |
| 20260904095017 | 53 | 0.0 | 0.0 | 0.00 | 0.02 | 0.00 | 96 | 1011.2 | |
| 20260904094038 | 53 | 0.0 | 0.0 | 0.00 | 0.02 | 0.00 | 96 | 1011.3 | |
| 20260904093017 | 53 | 0.0 | 0.0 | 0.00 | 0.02 | 0.00 | 96 | 1011.2 | |
| 20260904092017 | 53 | 0.0 | 0.0 | 0.00 | 0.02 | 0.00 | 96 | 1011.2 | |
| 20260904091017 | 53 | 0.0 | 0.0 | 0.00 | 0.02 | 0.00 | 96 | 1011.4 | |
| 20260904090016 | 53 | 0.0 | 0.0 | 0.00 | 0.02 | 0.00 | 96 | 1011.4 | |
| 20260904085016 | 52 | 0.0 | 0.0 | 0.00 | 0.02 | 0.00 | 96 | 1011.4 | |
| 20260904084017 | 52 | 0.0 | 0.0 | 0.00 | 0.02 | 0.00 | 96 | 1011.4 | |
| 20260904083016 | 53 | 0.0 | 0.0 | 0.00 | 0.02 | 0.00 | 95 | 1011.2 | |
| 20260904082017 | 53 | 0.0 | 0.0 | 0.00 | 0.02 | 0.00 | 95 | 1011.2 | |
| 20260904081016 | 53 | 0.0 | 0.0 | 0.00 | 0.02 | 0.00 | 95 | 1011.2 | |
| 20260904080017 | 53 | 0.0 | 0.0 | 0.00 | 0.02 | 0.00 | 95 | 1011.1 | |
| 20260904075021 | 53 | 0.0 | 0.0 | 0.00 | 0.02 | 0.00 | 95 | 1011.1 | |
| 20260904074037 | 53 | 0.0 | 0.0 | 0.00 | 0.02 | 0.00 | 95 | 1011.2 | |
| 20260904073036 | 53 | 0.0 | 0.0 | 0.00 | 0.02 | 0.00 | 95 | 1011.3 | |
| 20260904072016 | 53 | 0.0 | 0.0 | 0.00 | 0.02 | 0.00 | 95 | 1011.4 | |
| 20260904071016 | 53 | 0.0 | 0.0 | 0.00 | 0.02 | 0.00 | 95 | 1011.3 | |
| 20260904070016 | 54 | 0.0 | 0.0 | 0.00 | 0.02 | 0.02 | 95 | 1011.3 | |
| 20260904065016 | 54 | 0.0 | 0.0 | 0.00 | 0.02 | 0.02 | 95 | 1011.3 | |
| 20260904064016 | 54 | 0.0 | 0.0 | 0.00 | 0.02 | 0.02 | 95 | 1011.4 | |
| 20260904063016 | 54 | 0.0 | 0.0 | 0.00 | 0.02 | 0.02 | 95 | 1011.5 | |
| 20260904062016 | 54 | 0.0 | 0.0 | 0.00 | 0.02 | 0.02 | 95 | 1011.4 | |
| 20260904061016 | 54 | 0.0 | 0.0 | 0.00 | 0.02 | 0.02 | 94 | 1011.2 | |
| 20260904060016 | 54 | 0.0 | 0.0 | 0.00 | 0.02 | 0.02 | 94 | 1011.2 | |
| 20260904055016 | 54 | 0.0 | 0.0 | 0.01 | 0.02 | 0.02 | 94 | 1011.1 | |
| 20260904054139 | 55 | 0.0 | 0.0 | 0.02 | 0.02 | 0.02 | 94 | 1011.2 | |
| 20260904053016 | 55 | 0.0 | 0.0 | 0.02 | 0.02 | 0.02 | 94 | 1011.1 | |
| 20260904052017 | 55 | 0.0 | 0.0 | 0.02 | 0.02 | 0.02 | 94 | 1011.0 | |
| 20260904051016 | 55 | 0.0 | 0.0 | 0.02 | 0.02 | 0.02 | 94 | 1011.0 | |
| 20260904050016 | 56 | 0.0 | 0.0 | 0.02 | 0.02 | 0.02 | 93 | 1011.0 | |
| 20260904045016 | 56 | 0.0 | 0.0 | 0.01 | 0.01 | 0.01 | 92 | 1011.1 | |
| 20260904044036 | 56 | 0.0 | 0.0 | 0.00 | 0.00 | 0.00 | 91 | 1011.2 | |
| 20260904043036 | 56 | 0.0 | 0.0 | 0.00 | 0.00 | 0.00 | 91 | 1011.2 | |
| 20260904042016 | 56 | 0.0 | 0.0 | 0.00 | 0.00 | 0.00 | 91 | 1011.2 | |
| 20260904041016 | 56 | 0.0 | 0.0 | 0.00 | 0.00 | 0.00 | 91 | 1011.2 | |
| 20260904040016 | 56 | 0.0 | 0.0 | 0.00 | 0.00 | 0.00 | 91 | 1011.1 | |
| 20260904035037 | 56 | 0.0 | 0.0 | 0.00 | 0.00 | 0.00 | 91 | 1011.1 | |
| 20260904034015 | 56 | 0.0 | 0.0 | 0.00 | 0.00 | 0.00 | 91 | 1010.9 | |
| 20260904033023 | 56 | 0.0 | 0.0 | 0.00 | 0.00 | 0.00 | 91 | 1010.8 | |
| 20260904032018 | 57 | 0.0 | 0.0 | 0.00 | 0.00 | 0.00 | 91 | 1010.6 | |
| 20260904031023 | 57 | 0.0 | 0.0 | 0.00 | 0.00 | 0.00 | 90 | 1010.6 | |
| 20260904030017 | 57 | 0.0 | 0.0 | 0.00 | 0.00 | 0.00 | 90 | 1010.5 | |
| 20260904025018 | 57 | 0.0 | 0.0 | 0.00 | 0.00 | 0.00 | 89 | 1010.4 | |
| 20260904024025 | 57 | 0.0 | 0.0 | 0.00 | 0.00 | 0.00 | 88 | 1010.3 | |
| 20260904023017 | 58 | 0.0 | 0.0 | 0.00 | 0.00 | 0.00 | 88 | 1010.4 | |
| 20260904022017 | 58 | 0.0 | 0.0 | 0.00 | 0.00 | 0.00 | 87 | 1010.4 | |
| 20260904021017 | 59 | 0.0 | 0.0 | 0.00 | 0.00 | 0.00 | 86 | 1010.3 | |
| 20260904020101 | 59 | 0.0 | 0.0 | 0.00 | 0.00 | 0.00 | 85 | 1010.3 | |
| 20260904015017 | 60 | 0.0 | 0.9 | 0.00 | 0.00 | 0.00 | 84 | 1010.3 | |
| 20260904014017 | 60 | 0.0 | 0.0 | 0.00 | 0.00 | 0.00 | 82 | 1010.3 | |
| 20260904013022 | 61 | 0.0 | 0.0 | 0.00 | 0.00 | 0.00 | 79 | 1010.3 | |
| 20260904012019 | 62 | 0.0 | 0.0 | 0.00 | 0.01 | 0.00 | 76 | 1010.3 | |
| 20260904011039 | 63 | 0.0 | 0.0 | 0.00 | 0.03 | 0.00 | 76 | 1010.3 | |
| 20260904010017 | 63 | 0.0 | 0.0 | 0.00 | 0.03 | 0.00 | 74 | 1010.2 | |
| 20260904005024 | 63 | 0.0 | 0.9 | 0.00 | 0.03 | 0.00 | 74 | 1010.1 | |
| 20260904004017 | 63 | 0.0 | 0.9 | 0.00 | 0.03 | 0.00 | 73 | 1010.1 | |
| 20260904003022 | 64 | 0.0 | 0.9 | 0.00 | 0.03 | 0.00 | 71 | 1010.2 | |
| 20260904002038 | 64 | 0.0 | 0.0 | 0.00 | 0.03 | 0.00 | 71 | 1010.2 | |
| 20260904001039 | 64 | 0.0 | 0.0 | 0.00 | 0.03 | 0.00 | 69 | 1010.1 | |
| 20260904000045 | 63 | 0.0 | 0.0 | 0.00 | 0.04 | 0.00 | 69 | 1010.1 | |
| 20260903235017 | 63 | 0.0 | 0.9 | 0.00 | 0.04 | 0.00 | 70 | 1010.1 | |
| 20260903234015 | 63 | 0.0 | 0.0 | 0.00 | 0.04 | 0.00 | 70 | 1010.1 | |
| 20260903233016 | 63 | 0.0 | 0.9 | 0.00 | 0.05 | 0.00 | 71 | 1010.2 | |
| 20260903232015 | 63 | 0.0 | 0.0 | 0.00 | 0.06 | 0.00 | 71 | 1010.1 | |
| 20260903231017 | 63 | 0.0 | 0.9 | 0.00 | 0.07 | 0.00 | 70 | 1010.1 | |
| 20260903230017 | 62 | 0.0 | 1.7 | 0.00 | 0.08 | 0.00 | 71 | 1010.2 | |
| 20260903225017 | 62 | 0.0 | 1.7 | 0.00 | 0.09 | 0.00 | 72 | 1010.3 | |
| 20260903223024 | 63 | 0.0 | 1.7 | 0.00 | 0.11 | 0.00 | 72 | 1010.4 | |
| 20260903222041 | 64 | 158 | 0.9 | 1.7 | 0.00 | 0.12 | 0.00 | 69 | 1010.3 |
| 20260903221021 | 64 | 0.0 | 1.7 | 0.00 | 0.13 | 0.00 | 67 | 1010.3 |